User: anonymous   Login
Location: Voyageurs National Park
(48.5020°N, 92.9292°W)
Time: 02:14:32
(UTC-05:00)
Language:

Terra - Orbit

View from above orbital plane
View from above orbital plane
View from above satellite
View from above satellite

Ground track
Ground track

The orbit data is extracted from the following two-line orbital elements,

1 25994U 99068A   17291.81012977 -.00000039  00000-0  13145-5 0  9998
2 25994  98.1998   5.0297 0001247  83.6541 276.4787 14.57123289948676
Epoch (UTC): 18 October 2017 19:26:35
Eccentricity: 0.0001247
inclination: 98.1998°
perigee height: 701 km
apogee height: 703 km
right ascension of ascending node: 5.0297°
argument of perigee: 83.6541°
revolutions per day: 14.57123289
mean anomaly at epoch: 276.4787°
orbit number at epoch: 94867

The dashed part of the orbit path shows where the satellite is in the earth's shadow,  

DLR